Regional Weather Roundup
Issued by NWS

Home | Current Version | Previous Version | Graphics & Text | Print | Product List | Glossary On
Versions: 1 2 3 4 5 6 7 8 9 10 11 12 13 14 15 16 17 18 19 20 21 22 23 24 25 26 27 28 29 30 31 32 33 34 35 36 37 38 39 40 41 42 43 44 45 46 47 48 49 50
000
ASUS45 KPSR 062210
RWRAZ

ARIZONA HOURLY REGIONAL WEATHER ROUNDUP
NATIONAL WEATHER SERVICE PHOENIX AZ
300 PM MST FRI MAY 06 2016

NOTE: FAIR INDICATES FEW OR NO CLOUDS BELOW 12,000 FEET WITH NO
SIGNIFICANT WEATHER AND/OR OBSTRUCTIONS TO VISIBILITY.

AZZ001>003-036-062300-
NORTHWEST ARIZONA

CITY           SKY/WX    TMP DP  RH WIND       PRES   REMARKS
BULLHEAD CITY  PTSUNNY   77  32  19 SE22      29.76S
KINGMAN        LGT RAIN  55  42  61 E9        29.88F
$$

AZZ004>008-015-016-018-062300-
NORTH CENTRAL ARIZONA

CITY           SKY/WX    TMP DP  RH WIND       PRES   REMARKS
GRAND CANYON   CLOUDY    59  18  20 S9G24     29.89F
WILLIAMS       MOSUNNY   55  16  21 S23G35    29.98F
PRESCOTT       PTSUNNY   61  30  31 SW20G28   29.88S
FLAGSTAFF      MOSUNNY   54  12  18 SW18G33   29.92F
PAYSON         MOSUNNY   63  23  22 S13G30    29.93F
PAGE           MOSUNNY   76  15  10 S23G32    29.74F
$$

AZZ009>014-017-062300-
NORTHEAST ARIZONA

CITY           SKY/WX    TMP DP  RH WIND       PRES   REMARKS
WINSLOW        SUNNY     71  14  11 S28G37    29.85F
SAINT JOHNS    PTSUNNY   69  28  21 SW24G33   29.86F
WINDOW ROCK    PTSUNNY   64  30  27 SW10      29.91F
SHOW LOW       PTSUNNY   61  23  23 SW26G36   29.92F
$$

AZZ023-062300-
GREATER PHOENIX AREA

CITY           SKY/WX    TMP DP  RH WIND       PRES   REMARKS
PHOENIX        PTSUNNY   79  38  22 SW14G21   29.78F
BUCKEYE        MOSUNNY   75  41  29 NW5       29.82F
GLENDALE       PTSUNNY   75  45  33 SE12      29.82F
LUKE AFB       MOSUNNY   76  43  30 E7        29.79F
DEER VALLEY    MOSUNNY   73  41  31 W7        29.81F
SCOTTSDALE     MOSUNNY   76  37  24 VRB6      29.81F
MESA-FALCON    MOSUNNY  N/A N/A N/A SW17G23   29.77F
MESA-GATEWAY   MOSUNNY   79  30  17 SW16G29   29.80F
CHANDLER       MOSUNNY   81  27  13 S21       29.79F
$$

AZZ027-028-062300-
SOUTHWEST MARICOPA COUNTY AND PINAL COUNTY

CITY           SKY/WX    TMP DP  RH WIND       PRES   REMARKS
CASA GRANDE    SUNNY     79  28  15 SW16G30   29.82F
GILA BEND      MOSUNNY   78  38  23 SW17G26   29.79F
$$

AZZ503-504-507>509-062300-
SOUTHEAST ARIZONA

CITY           SKY/WX    TMP DP  RH WIND       PRES   REMARKS
TUCSON         SUNNY     80  18  10 SW17G26   29.85F
DAVIS-MONTHAN  SUNNY     79  23  12 S18G29    29.83F
RYAN FIELD     SUNNY     79  23  12 SW26G35   29.86F
NOGALES        SUNNY     75  27  17 S16G29    29.89F
SIERRA VISTA   SUNNY     75  22  14 S13G37    29.91F
DOUGLAS        SUNNY     81  20  10 SW32G44   29.87F
SAFFORD        SUNNY     84  25  11 SW20G33   29.77F
$$

AZZ020-021-025-026-031-062300-
SOUTHWEST ARIZONA

CITY           SKY/WX    TMP DP  RH WIND       PRES   REMARKS
YUMA           TSTM      66  54  65 W18G26    29.83R
$$

CAZ031-033-041-043-047-048-061-062300-
SOUTHERN CALIFORNIA

CITY           SKY/WX    TMP DP  RH WIND       PRES   REMARKS
DOWNTOWN L.A.  CLOUDY    65  51  60 VRB3      29.88S
L.A. AIRPORT   PTSUNNY   67  51  56 SW15      29.90R
SAN DIEGO      PTSUNNY   66  51  58 SW13      29.93F
BURBANK        CLOUDY    63  48  58 SE13      29.87F
ONTARIO        CLOUDY    63  47  55 SW7       29.88F
RIVERSIDE      CLOUDY    63  47  55 CALM      29.89F
PALM SPRINGS   LGT RAIN  69  45  41 S6        29.83R
EL CENTRO NAS  PTSUNNY   78  40  25 SW17      29.82F
IMPERIAL       PTSUNNY   76  42  29 S10G23    29.79F
BLYTHE         CLOUDY    76  42  29 S20       29.78F
NEEDLES        MOSUNNY   77  37  23 S12G25    29.74F
$$

NVZ020-UTZ003-062300-
SOUTHERN NEVADA-UTAH

CITY           SKY/WX    TMP DP  RH WIND       PRES   REMARKS
LAS VEGAS      CLOUDY    64  42  44 E15       29.76S
SALT LAKE CITY CLOUDY    59  44  57 W15       29.77F
$$

NMZ009-TXZ055-062300-
NEW MEXICO-WEST TEXAS

CITY           SKY/WX    TMP DP  RH WIND       PRES   REMARKS
ALBUQUERQUE    MOSUNNY   83  12   7 S35G47    29.87F
EL PASO        MOSUNNY   96  13   5 SW16G29   29.77F
$$


........................KEY........................
SKY/WX - SKY CONDITION/WEATHER
TMP    - TEMPERATURE IN FAHRENHEIT
DP     - DEW POINT IN FAHRENHEIT
RH     - RELATIVE HUMIDITY IN PERCENT
WIND   - DIRECTION AND SPEED IN MILES PER HOUR (MPH)
VRB    - VARIABLE WIND DIRECTION
PRES   - MEAN SEA LEVEL PRESSURE IN INCHES OF MERCURY
         F - FALLING PRESSURE   R - RISING PRESSURE
         S - STEADY PRESSURE
VSB    - VISIBILITY IN MILES
HX     - HEAT INDEX IN FAHRENHEIT
WCI    - WIND CHILL INDEX IN FAHRENHEIT
TC     - TEMPERATURE IN CELSIUS WHICH IS ALSO KNOWN AS
         TEMPERATURE IN CENTIGRADE
AFB    - AIR FORCE BASE
         LUKE AFB IS LUKE AIR FORCE BASE
         DAVIS-MONTHAN IS DAVIS-MONTHAN AIR FORCE BASE
NAS    - NAVAL AIR STATION
         EL CENTRO NAS IS EL CENTRO NAVAL AIR STATION
N/A    - NOT AVAILABLE




USA.gov is the U.S. government's official web portal to all federal, state and local government web resources and services.